Date String (YYYY-MM-DD hh:mm:ss) UTC,Instrument flags,absolute air pressure of the measurement (hPa),sample flow rate (lpm),inlet stack bypass flow (lpm),air temperature of the measurement (°C),ambient temperature measured by the external sensor (°C),aerosol sample conditioner tube jacket temperature (°C),OPC LED temperature (°C),internal box temperature (°C),relative humidity of the measurement (%),span deviation,mass concentration of particles derived from Lorenz-Mie calculation of OPC scattering (μg/m³),mass concentration of particles derived from Lorenz-Mie calculation of OPC scattering (μg/m³),mass concentration of particles derived from Lorenz-Mie calculation of OPC scattering (μg/m³)
DateTimeUTC,F1_M11,P_M11,Q1_M11,Q2_M11,T1_M11,T2_M11,T3_M11,T4_M11,T5_M11,U1_M11,ZSPAN_M11,X0_M11,X2_M11,X1_M11
2023-09-17 20:00:00,SystemResetWarning,0833.6,5.00,000.00,027.7,026.5,000.0,036.0,029.4,20.9,0000.0,0008.30,0003.75,0003.46
2023-09-17 20:01:00,SystemResetWarning,0833.6,5.00,000.00,027.8,026.7,000.0,036.0,029.5,20.7,0000.0,0008.27,0003.74,0003.45
2023-09-17 20:02:00,SystemResetWarning,0833.5,5.00,000.00,027.8,026.6,000.0,036.0,029.5,21.2,0000.0,0008.46,0003.81,0003.47
2023-09-17 20:03:00,SystemResetWarning,0833.4,4.99,000.00,027.7,025.2,000.0,036.0,029.0,21.6,0000.0,0008.48,0003.84,0003.49
2023-09-17 20:04:00,SystemResetWarning,0833.4,5.00,000.00,027.6,024.0,000.0,035.9,028.7,21.5,0000.0,0008.48,0003.86,0003.50
2023-09-17 20:05:00,SystemResetWarning,0833.4,5.01,000.00,027.5,024.1,000.0,035.9,028.8,21.5,0000.0,0008.47,0003.90,0003.51
2023-09-17 20:06:00,SystemResetWarning,0833.5,5.01,000.00,027.5,024.4,000.0,035.9,028.8,21.5,0000.0,0008.39,0003.91,0003.52
2023-09-17 20:07:00,SystemResetWarning,0833.5,4.99,000.00,027.5,024.8,000.0,035.9,028.9,21.2,0000.0,0008.21,0003.90,0003.52
2023-09-17 20:08:00,SystemResetWarning,0833.4,5.00,000.00,027.5,025.3,000.0,035.9,029.0,20.6,0000.0,0007.86,0003.90,0003.52
2023-09-17 20:09:00,SystemResetWarning,0833.5,5.01,000.00,027.5,025.6,000.0,035.9,029.1,20.2,0000.0,0008.27,0003.91,0003.54
2023-09-17 20:10:00,SystemResetWarning,0833.4,5.00,000.00,027.6,026.0,000.0,035.9,029.2,19.3,0000.0,0008.23,0003.94,0003.56
2023-09-17 20:11:00,SystemResetWarning,0833.4,5.00,000.00,027.6,026.2,000.0,035.9,029.3,19.2,0000.0,0007.65,0003.97,0003.59
2023-09-17 20:12:00,SystemResetWarning,0833.4,5.00,000.00,027.7,026.5,000.0,036.0,029.4,18.9,0000.0,0007.69,0004.00,0003.61
2023-09-17 20:13:00,SystemResetWarning,0833.4,5.01,000.00,027.7,026.7,000.0,036.0,029.4,19.3,0000.0,0008.07,0004.02,0003.64
2023-09-17 20:14:00,SystemResetWarning,0833.4,5.00,000.00,027.8,026.9,000.0,036.0,029.5,20.8,0000.0,0008.19,0004.04,0003.65
2023-09-17 20:15:00,SystemResetWarning,0833.5,5.00,000.00,027.8,027.0,000.0,036.0,029.6,21.2,0000.0,0008.41,0004.06,0003.67
2023-09-17 20:16:00,SystemResetWarning,0833.4,4.98,000.00,027.8,025.9,000.0,036.0,029.3,20.3,0000.0,0008.41,0004.05,0003.68
2023-09-17 20:17:00,SystemResetWarning,0833.4,5.00,000.00,027.7,024.3,000.0,035.9,028.9,20.7,0000.0,0008.48,0004.07,0003.70
2023-09-17 20:18:00,SystemResetWarning,0833.3,5.00,000.00,027.6,024.1,000.0,035.9,028.9,20.6,0000.0,0008.51,0004.11,0003.72
2023-09-17 20:19:00,SystemResetWarning,0833.3,5.01,000.00,027.5,024.4,000.0,035.9,028.8,20.5,0000.0,0008.49,0004.12,0003.75
2023-09-17 20:20:00,SystemResetWarning,0833.3,5.00,000.00,027.5,024.8,000.0,035.9,028.9,20.6,0000.0,0008.66,0004.13,0003.76
2023-09-17 20:21:00,SystemResetWarning,0833.4,5.00,000.00,027.5,025.2,000.0,035.9,029.0,20.4,0000.0,0008.45,0004.11,0003.76
2023-09-17 20:22:00,SystemResetWarning,0833.3,5.01,000.00,027.6,025.5,000.0,035.9,029.1,20.2,0000.0,0008.50,0004.11,0003.75
2023-09-17 20:23:00,SystemResetWarning,0833.2,5.00,000.00,027.6,025.9,000.0,035.9,029.2,20.2,0000.0,0008.62,0004.12,0003.75
2023-09-17 20:24:00,SystemResetWarning,0833.3,4.99,000.00,027.6,026.2,000.0,036.0,029.3,20.2,0000.0,0008.23,0004.12,0003.75
2023-09-17 20:25:00,SystemResetWarning,0833.2,4.99,000.00,027.7,026.4,000.0,036.0,029.3,20.7,0000.0,0008.17,0004.10,0003.73
2023-09-17 20:26:00,SystemResetWarning,0833.2,5.00,000.00,027.7,026.7,000.0,036.0,029.4,20.9,0000.0,0008.29,0004.09,0003.72
2023-09-17 20:27:00,SystemResetWarning,0833.2,5.00,000.00,027.8,026.8,000.0,036.0,029.5,20.4,0000.0,0008.45,0004.09,0003.70
2023-09-17 20:28:00,SystemResetWarning,0833.2,5.00,000.00,027.8,026.9,000.0,036.1,029.6,19.7,0000.0,0008.38,0004.07,0003.70
2023-09-17 20:29:00,SystemResetWarning,0833.2,5.00,000.00,027.8,025.6,000.0,036.0,029.1,20.1,0000.0,0008.37,0004.04,0003.69
2023-09-17 20:30:00,SystemResetWarning,0833.2,5.00,000.00,027.7,024.2,000.0,035.9,028.8,20.5,0000.0,0008.23,0004.03,0003.67
2023-09-17 20:31:00,SystemResetWarning,0833.3,5.01,000.00,027.6,024.1,000.0,035.9,028.9,20.2,0000.0,0007.66,0004.02,0003.66
2023-09-17 20:32:00,SystemResetWarning,0833.2,5.00,000.00,027.5,024.5,000.0,035.9,028.9,20.5,0000.0,0007.70,0004.03,0003.66
2023-09-17 20:33:00,SystemResetWarning,0833.4,4.99,000.00,027.5,024.9,000.0,035.9,029.0,21.2,0000.0,0008.32,0004.03,0003.65
2023-09-17 20:34:00,SystemResetWarning,0833.4,5.00,000.00,027.5,025.3,000.0,035.9,029.1,21.1,0000.0,0009.12,0004.01,0003.63
2023-09-17 20:35:00,SystemResetWarning,0833.0,5.02,000.00,027.6,025.7,000.0,035.9,029.2,20.3,0000.0,0009.10,0003.98,0003.61
2023-09-17 20:36:00,SystemResetWarning,0833.2,4.99,000.00,027.6,026.0,000.0,035.9,029.3,20.9,0000.0,0009.03,0003.96,0003.60
2023-09-17 20:37:00,SystemResetWarning,0833.0,5.00,000.00,027.7,026.3,000.0,036.0,029.3,21.0,0000.0,0008.78,0003.96,0003.60
2023-09-17 20:38:00,SystemResetWarning,0833.3,4.99,000.00,027.7,026.5,000.0,036.0,029.4,20.5,0000.0,0008.55,0003.97,0003.60
2023-09-17 20:39:00,SystemResetWarning,0833.4,5.00,000.00,027.8,026.7,000.0,036.0,029.5,21.0,0000.0,0008.49,0003.94,0003.59
2023-09-17 20:40:00,SystemResetWarning,0833.0,5.01,000.00,027.8,026.9,000.0,036.1,029.6,21.1,0000.0,0008.36,0003.91,0003.57
2023-09-17 20:41:00,SystemResetWarning,0832.9,5.00,000.00,027.9,026.7,000.0,036.1,029.6,20.5,0000.0,0008.41,0003.92,0003.55
2023-09-17 20:42:00,SystemResetWarning,0833.1,4.98,000.00,027.8,025.2,000.0,036.0,029.2,19.0,0000.0,0008.65,0003.94,0003.54
2023-09-17 20:43:00,SystemResetWarning,0833.1,5.02,000.00,027.7,024.1,000.0,036.0,028.9,19.9,0000.0,0008.56,0003.93,0003.51
2023-09-17 20:44:00,SystemResetWarning,0832.8,5.00,000.00,027.6,024.2,000.0,035.9,028.9,20.3,0000.0,0007.97,0003.90,0003.48
2023-09-17 20:45:00,SystemResetWarning,0832.9,5.00,000.00,027.6,024.5,000.0,035.9,028.9,20.1,0000.0,0006.82,0003.89,0003.46
2023-09-17 20:46:00,SystemResetWarning,0833.1,5.00,000.00,027.5,025.0,000.0,035.9,029.0,19.3,0000.0,0007.01,0003.90,0003.43
2023-09-17 20:47:00,SystemResetWarning,0832.9,5.00,000.00,027.6,025.4,000.0,035.9,029.1,18.8,0000.0,0007.52,0003.86,0003.40
2023-09-17 20:48:00,SystemResetWarning,0832.8,5.00,000.00,027.6,025.7,000.0,036.0,029.2,18.9,0000.0,0008.09,0003.83,0003.36
2023-09-17 20:49:00,SystemResetWarning,0832.8,4.99,000.00,027.6,026.1,000.0,036.0,029.3,19.2,0000.0,0008.07,0003.79,0003.32
2023-09-17 20:50:00,SystemResetWarning,0832.8,5.00,000.00,027.7,026.3,000.0,036.0,029.4,18.5,0000.0,0008.18,0003.78,0003.30
2023-09-17 20:51:00,SystemResetWarning,0832.8,5.01,000.00,027.7,026.6,000.0,036.0,029.4,19.3,0000.0,0008.21,0003.78,0003.29
2023-09-17 20:52:00,SystemResetWarning,0832.8,5.00,000.00,027.8,026.8,000.0,036.0,029.5,18.8,0000.0,0008.79,0003.76,0003.28
2023-09-17 20:53:00,SystemResetWarning,0832.8,4.98,000.00,027.8,026.3,000.0,036.0,029.4,18.7,0000.0,0008.53,0003.70,0003.27
2023-09-17 20:54:00,SystemResetWarning,0832.7,5.01,000.00,027.7,024.7,000.0,036.0,028.9,18.5,0000.0,0008.58,0003.71,0003.28
2023-09-17 20:55:00,SystemResetWarning,0832.7,5.01,000.00,027.6,024.0,000.0,035.9,028.8,19.6,0000.0,0008.43,0003.69,0003.29
2023-09-17 20:56:00,SystemResetWarning,0832.7,5.00,000.00,027.5,024.3,000.0,035.9,028.8,20.2,0000.0,0008.35,0003.68,0003.31
2023-09-17 20:57:00,SystemResetWarning,0832.7,5.00,000.00,027.5,024.6,000.0,035.9,028.9,19.3,0000.0,0008.16,0003.64,0003.32
2023-09-17 20:58:00,SystemResetWarning,0832.7,5.00,000.00,027.5,025.0,000.0,035.9,029.0,18.9,0000.0,0007.84,0003.65,0003.33
2023-09-17 20:59:00,SystemResetWarning,0832.7,5.00,000.00,027.5,025.4,000.0,035.9,029.1,19.6,0000.0,0007.05,0003.66,0003.35
